STARLINK-11189, 60188

Orbit data source: Space-Track

STARLINK-11189, 60188 is a payload satellite owned by SpaceX/Seattle (US) in LEO that was launched on Wed, 03 Jul 2024 UTC via an FALCON 9 launch vehicle from the Air Force Eastern Test Range (AFETR). Payload-class satellites include a variety of spacecraft equipped with specific instruments for various scientific and technological missions. These include communications satellites like Starlink; space stations such as the ISS; scientific satellites like the Hubble; Earth observation satellites from companies like Planet Labs, Umbra, and HawkEye 360; GPS; miniature CubeSats for education and research; and military/defense satellites.

Loading next visibility...
Identifier
60188, 2024-124F
Orbit
LEO
Country
Flag of USUS
Related business
Manufacturer
SpaceX/Seattle
Mission
Operational Commercial Communications
Bus & Motor
STARLINK V2MD, Unknown motor
Mass
960 kg wet, ~910 kg dry
Launch date (UTC)
2024-07-03 (1 year ago)
Launch vehicle
FALCON 9
Launch site
Air Force Eastern Test Range (AFETR)
Object type
Payload
Rocket body
Debris
Shape & HBR
Box + 2 Pan, 14.5 m
Radar Cross Section
36.964 m², Large (>1 m²)

Expand to show TLE details & history
Last TLE update: 19 hours ago

TLE from 19 hours ago
0 STARLINK-11189
1 60188U 24124F   25260.47480996  .00000454  00000-0  86059-5 0  9994
2 60188  53.1583 295.5141 0000986  77.6206 282.4922 15.69711052 69324
Epoch: 2025-09-17T11:23Z
TLE epoch observation values (Epoch: 2025-09-17T11:23:43.58Z)
Latitude
-0.00004°
Longitude
127.93225°
Altitude
360.495 km
Speed
7.694 km/s
True Right ascension
19h 42m 03s
True Declination
0° 00' 00"
Sunlit
Object was in full shadow at epoch
Visualization orbit readout
Latitude
Unknown
Longitude
Unknown
Altitude
Unknown
Speed
Unknown
Apparent Right ascension
Unknown
Apparent Declination
Unknown
Sunlit
N/A
Visualization observer readout
Local Sidereal Time
22:55:19
Azimuth
Unknown
Elevation
Unknown
Doppler factor
Unknown
Orbital elements
Apogee altitude
360.649 km
Perigee altitude
359.32 km
Semi-major axis
6,738.122 km
Eccentricity
0.0001
Inclination
53.1583°
RAAN
295.5141°
Arg. of periapsis
77.6206°
True anomaly
282.48117°
Mean anomaly
282.4922°
Eccentric anomaly
282.48668°
Mean motion
3.92405 °/min
Orbital period
91.74 mins
BSTAR
0.0000086059
Loading maneuver chart data...
Computing Atmospheric mass density...
Loading historical data...
Loading historical data...
Loading historical data...
Loading historical data...
Loading historical data...
Loading historical data...
Loading historical data...

Documentation

Showing up to 5 results
|